Wind_Speed
36 35 34 33 31 29 28 28 30 30 28 27 26 27 27 28 26 25 23 23 24 25 25 27 27 27 25
36 37 37 34 32 29 28 27 29 27 26 27 27 27 27 26 27 26 25 25 25 26 25 28 26 26 25
41 39 38 34 32 31 29 29 28 29 28 27 26 25 26 26 26 26 28 27 29 25 25 26 28 24 23
39 40 36 29 27 33 36 33 35 32 31 28 26 25 24 27 28 30 30 32 31 29 27 24 25 25 25
37 34 34 32 35 37 38 39 35 32 32 28 29 27 24 24 23 25 28 30 30 29 28 25 25 25 25
35 37 39 37 34 35 37 38 41 32 30 35 31 34 29 25 22 23 25 27 28 27 27 27 25 27 25
36 37 39 37 36 36 33 36 39 38 36 39 33 36 32 27 23 25 25 26 26 27 26 25 24 24 23
29 33 35 36 38 38 38 39 38 35 28 33 36 36 31 27 23 22 23 24 24 24 23 22 20 20 21
30 32 33 33 33 33 33 34 38 33 30 28 32 29 26 27 25 21 18 18 21 21 21 18 19 20 21
34 31 28 27 23 20 25 29 30 34 23 20 25 26 29 28 21 13 14 18 15 16 16 14 17 21 21
29 27 26 25 24 21 22 24 28 29 27 25 29 29 28 31 30 24 21 18 16 15 16 17 20 20 21
27 28 28 27 25 24 23 23 24 28 27 26 29 29 28 30 34 33 24 19 18 18 22 22 21 20 18
28 29 28 28 27 26 23 23 26 24 24 26 26 27 27 30 32 31 27 23 20 18 18 22 22 20 22
27 27 28 28 27 28 29 26 27 27 24 21 19 22 26 28 28 28 24 23 22 20 21 21 21 22 22
27 29 30 28 27 27 27 31 27 27 26 22 18 19 21 24 28 25 25 27 26 22 21 25 23 21 22
26 29 30 31 31 28 27 29 29 26 23 24 18 18 21 21 23 26 26 25 24 23 22 23 25 19 19
26 29 32 34 33 32 30 32 30 28 25 24 20 19 21 26 27 23 24 23 19 17 17 18 24 22 18
Wind_Direction
310 313 315 316 315 314 311 307 308 308 303 300 298 287 280 280 283 285 290 289 288 289 293 293 297 294 290
311 314 315 317 316 313 314 313 310 312 307 299 296 293 285 278 277 276 287 289 285 286 286 292 296 294 289
308 313 315 316 315 313 315 314 314 316 313 308 302 290 281 275 275 277 284 285 285 285 285 287 288 290 289
308 309 310 310 305 312 314 316 315 313 311 309 308 301 297 281 274 271 278 286 283 279 284 286 285 282 281
308 304 304 304 305 309 304 306 308 309 309 313 312 309 301 297 277 272 278 282 280 277 276 279 283 282 278
305 304 305 308 309 311 302 301 300 306 307 308 314 312 307 302 292 288 286 283 277 273 272 274 279 278 281
298 299 304 306 307 306 305 299 297 300 299 298 303 306 308 300 297 283 284 284 277 270 267 272 273 280 281
306 305 303 305 302 300 301 299 298 299 301 287 299 299 304 298 293 287 285 283 276 267 264 268 274 281 283
306 306 304 300 290 290 290 292 294 292 291 295 295 301 301 298 298 288 287 284 274 262 259 262 275 285 287
308 307 308 314 304 287 289 295 291 294 292 285 293 298 297 302 304 284 269 288 287 266 251 261 287 292 290
313 316 321 323 322 300 290 296 295 288 286 288 290 292 288 292 291 290 285 285 281 277 245 279 289 288 291
320 323 325 326 324 319 304 294 289 283 285 283 281 281 283 286 290 293 283 283 284 267 269 276 280 281 285
322 321 322 322 324 324 314 308 291 287 286 284 281 278 276 281 281 287 287 286 283 277 272 278 273 269 283
331 326 326 325 321 326 326 317 314 295 283 287 286 277 276 276 273 277 280 284 283 274 272 275 270 273 282
336 337 333 326 322 322 324 325 315 310 289 286 287 285 280 275 266 269 280 285 285 282 270 269 271 266 278
337 339 335 336 332 326 323 324 317 311 300 290 297 292 286 281 266 276 281 286 287 281 275 271 271 268 278
337 336 338 340 336 332 329 325 318 312 302 282 289 289 287 283 286 283 280 286 290 277 265 263 278 283 278
Height
1489 1485 1482 1480 1478 1475 1472 1468 1465 1462 1459 1456 1454 1452 1452 1452 1451 1449 1447 1445 1444 1442 1440 1437 1435 1434 1432
1482 1479 1477 1474 1471 1468 1465 1462 1459 1456 1452 1450 1447 1445 1443 1443 1443 1442 1440 1438 1436 1434 1433 1431 1429 1427 1426
1473 1473 1470 1468 1464 1461 1458 1455 1452 1449 1446 1443 1440 1437 1435 1435 1434 1433 1432 1430 1428 1427 1425 1424 1423 1421 1420
1469 1466 1465 1462 1459 1454 1449 1448 1444 1442 1439 1436 1433 1430 1428 1426 1426 1425 1424 1422 1420 1419 1418 1417 1416 1415 1413
1465 1461 1459 1456 1454 1449 1444 1440 1436 1436 1431 1429 1426 1424 1421 1418 1417 1416 1415 1414 1412 1411 1411 1411 1409 1408 1407
1461 1456 1452 1450 1446 1442 1437 1434 1427 1429 1425 1421 1420 1415 1414 1412 1410 1409 1408 1406 1405 1404 1403 1403 1402 1401 1400
1455 1452 1445 1444 1440 1435 1431 1427 1422 1420 1420 1413 1413 1409 1407 1405 1402 1402 1400 1399 1398 1397 1397 1397 1396 1395 1394
1450 1445 1441 1436 1433 1428 1423 1419 1414 1412 1414 1407 1405 1402 1400 1397 1396 1395 1394 1392 1391 1390 1390 1390 1390 1389 1388
1444 1440 1434 1430 1426 1422 1417 1414 1406 1405 1406 1402 1398 1396 1394 1390 1389 1389 1388 1386 1384 1383 1384 1384 1384 1383 1382
1436 1432 1428 1422 1417 1415 1411 1407 1404 1397 1398 1397 1394 1392 1387 1384 1383 1383 1383 1381 1379 1378 1379 1379 1379 1377 1376
1429 1424 1420 1415 1411 1408 1405 1402 1398 1394 1394 1392 1388 1386 1384 1379 1378 1378 1378 1376 1375 1375 1375 1375 1374 1373 1370
1424 1418 1413 1409 1405 1401 1397 1394 1391 1388 1386 1386 1382 1381 1378 1375 1371 1371 1372 1371 1370 1370 1370 1370 1370 1368 1366
1420 1415 1410 1404 1399 1394 1391 1387 1383 1381 1380 1378 1376 1374 1372 1369 1367 1365 1364 1364 1364 1364 1364 1364 1363 1362 1361
1417 1411 1405 1400 1395 1390 1385 1381 1376 1372 1373 1371 1369 1367 1364 1363 1361 1359 1359 1358 1358 1358 1357 1357 1357 1357 1355
1413 1407 1402 1396 1391 1386 1381 1376 1372 1367 1364 1363 1362 1360 1358 1356 1354 1353 1353 1352 1352 1351 1351 1349 1349 1350 1350
1410 1404 1399 1392 1386 1381 1377 1372 1366 1362 1358 1356 1355 1353 1351 1349 1349 1347 1347 1346 1345 1345 1345 1343 1341 1345 1344
1406 1401 1395 1388 1382 1375 1370 1366 1360 1356 1353 1351 1350 1349 1346 1343 1342 1343 1342 1341 1341 1339 1339 1338 1337 1337 1338